User: anonymous   Login
Location: Lussas
(44.6119°N, 4.4726°E)
Time: 05:48:57
(UTC+00:00)
Language:

Cosmos 1461 - Orbit

View from above orbital plane
View from above orbital plane
View from above satellite
View from above satellite

Ground track
Ground track

The orbit data is extracted from the following two-line orbital elements,

1 14064U 83044A   21055.76650097  .00000645  00000-0  66105-4 0  9994
2 14064  64.9998  67.4277 0115211 236.6359 122.3690 14.95068621924864
Epoch (UTC): 24 February 2021 18:23:45
Eccentricity: 0.0115211
inclination: 64.9998°
perigee height: 502 km
apogee height: 662 km
right ascension of ascending node: 67.4277°
argument of perigee: 236.6359°
revolutions per day: 14.95068621
mean anomaly at epoch: 122.3690°
orbit number at epoch: 92486

The dashed part of the orbit path shows where the satellite is in the earth's shadow,  

DLR